Regional Weather Roundup
Issued by NWS

Current Version | Previous Version | Text Only | Print | Product List | Glossary On
Versions: 1 2 3 4 5 6 7 8 9 10 11 12 13 14 15 16 17 18 19 20 21 22 23 24 25 26 27 28 29 30 31 32 33 34 35 36 37 38 39 40 41 42 43 44 45 46 47 48 49 50
000
ASUS45 KABQ 262310
RWRNM
WEATHER ROUNDUP FOR NEW MEXICO
NATIONAL WEATHER SERVICE ALBUQUERQUE NM
400 PM MST WED NOV 26 2014

NOTE: "FAIR" MEANS FEW OR NO CLOUDS BELOW 12,000 FEET AGL WITH NO
       SIGNIFICANT WEATHER OR OBSTRUCTIONS TO VISION.

      THIS PRODUCT IS RELEASED AS TWO VERSIONS.  ONE VERSION NEAR
      THE TOP OF THE HOUR CONTAINING PRELIMINARY DATA FROM ALBUQUERQUE
      AND OTHER STATIONS.  A FINAL VERSION WITH ADDITIONAL DATA IS
      ISSUED ABOUT 10 MINUTES AFTER THE HOUR.

NMZ501-503-504-510>518-270000-
NORTHWEST PLATEAU/NORTHCENTRAL MOUNTAINS

CITY           SKY/WX    TMP DP  RH WIND       PRES   REMARKS
FARMINGTON     CLEAR     55  22  27 W17       30.32S
LOS ALAMOS     CLEAR     48  22  36 E5        30.37R
SANTA FE       CLEAR     53  18  25 CALM      30.33R
TAOS           PTCLDY    46  25  42 SW9       30.35R
ANGEL FIRE     FAIR      42  22  44 W13       30.36R

$$
NMZ402-403-502-505>509-270000-
WESTCENTRAL MOUNTAINS/SOUTHWEST MOUNTAINS

CITY           SKY/WX    TMP DP  RH WIND       PRES   REMARKS
GALLUP         SUNNY     61  17  18 NW9       30.37S
GRANTS         CLEAR     57  18  21 NW13      30.39R
SILVER CITY    SUNNY     63  18  17 S8        30.33R

$$
NMZ407-409-411-412-270000-
SOUTHERN DESERTS

CITY           SKY/WX    TMP DP  RH WIND       PRES   REMARKS
LORDSBURG      FAIR      63  18  17 NW3       30.28S
DEMING         SUNNY     65  16  15 S8        30.28S
LAS CRUCES     SUNNY     64  16  15 CALM      30.29S
HOLLOMAN AFB   PTCLDY    64  21  19 N13       30.26S
ALAMOGORDO     CLEAR     64  19  17 N14       30.27S
T OR C         SUNNY     64  20  18 CALM      30.29S

$$
NMZ519>523-270000-
CENTRAL VALLEYS/CENTRAL HIGHLANDS

CITY           SKY/WX    TMP DP  RH WIND       PRES   REMARKS
ALBUQUERQUE    PTCLDY    59  22  24 VRB5      30.31F
DOUBLE EAGLE   CLEAR     57  23  26 NW12      30.34R
MORIARTY ARPT  FAIR      56  21  26 N12       30.32S
CLINES CORNERS CLEAR     50  21  32 NW16      30.31R
BELEN          FAIR      58  22  25 NE7       30.32S
SOCORRO        FAIR      61  22  22 CALM      30.31S

$$
NMZ524>526-539-540-270000-
SOUTHCENTRAL MOUNTAINS

CITY           SKY/WX    TMP DP  RH WIND       PRES   REMARKS
RUIDOSO        CLEAR     52  21  30 W10       30.36R

$$
NMZ527>531-270000-
NORTHEAST HIGHLANDS/NORTHEAST PLAINS

CITY           SKY/WX    TMP DP  RH WIND       PRES   REMARKS
LAS VEGAS      CLEAR     59  17  19 N10       30.28R
RATON          CLEAR     55  18  23 NW6       30.21R
CLAYTON        PTCLDY    45  27  49 S13       30.25R

$$
NMZ532>537-270000-
EASTCENTRAL PLAINS

CITY           SKY/WX    TMP DP  RH WIND       PRES   REMARKS
TUCUMCARI      CLEAR     53  27  36 E5        30.23S
CANNON AFB     CLEAR     54  27  35 SE6       30.26R
CLOVIS AIRPORT CLEAR     52  27  37 SE3       30.27R

$$
NMZ028-029-538-270000-
SOUTHEAST PLAINS

CITY           SKY/WX    TMP DP  RH WIND       PRES   REMARKS
ROSWELL        CLEAR     65  23  20 SE10      30.22R
CARLSBAD       CLEAR     67  21  17 E7        30.21R
HOBBS          CLEAR     57  27  30 E3        30.27R


$$



USA.gov is the U.S. government's official web portal to all federal, state and local government web resources and services.